Language: 


Des rapports , des résumés tant et plus, au choix de chacun....


Données Historiques de Météogheer
Journalier Rapport pour Janvier 10, 2018 Unitée:  Impériale    Métrique   Les deux
Suivant Jour »
Journalier Hebdomadaire Mensuel Annuel Sur mesure
  Max: Min: Moyenne:
Température: 50.5 °F 39 °F 45.9 °F
Point de rosée: 50 °F 39.2 °F 45.9 °F
Humidité: 98% 95% 98%
Vent: 8.5mph 0mph 3mph
Rafales: 10.7mph - -
Vent- - South
Pression: 29.8 in 29.7 in -
Pluie: 0.23 in    
Historical Graphs
 
 
Données tabulaires pour Janvier 10, 2018
Heure Température Point de rosée Pression Vent Vent Rafales Humidité Pluie Taux (Horaire) Conditions
00:54 45.5 °F 46.4 °F 29.7 in Calm   4 mph 98% 0 in
01:02 45.5 °F 46.4 °F 29.7 in Calm   3.4 mph 98% 0 in
01:06 45.5 °F 46.4 °F 29.7 in SSE 4.9 mph 5.8 mph 98% 0 in
01:09 45.5 °F 46.4 °F 29.7 in Calm   5.8 mph 98% 0 in
01:14 45.7 °F 46.4 °F 29.7 in South 3.4 mph 8.7 mph 98% 0 in
01:17 45.7 °F 46.4 °F 29.7 in South 5.6 mph 8.7 mph 98% 0 in
01:22 45.7 °F 46.4 °F 29.7 in SSE 2.7 mph 6.5 mph 98% 0 in
01:27 45.9 °F 46.4 °F 29.7 in SSW 3.4 mph 6.5 mph 98% 0 in
01:33 45.9 °F 46.4 °F 29.7 in Calm   6.5 mph 98% 0 in
01:40 45.9 °F 46.4 °F 29.7 in South 4.3 mph 7.4 mph 98% 0 in
01:44 45.9 °F 46.4 °F 29.7 in Calm   6.5 mph 98% 0 in
01:52 45.9 °F 46.4 °F 29.7 in South 6.7 mph 6.7 mph 98% 0 in
02:01 46 °F 46.4 °F 29.7 in South 5.4 mph 6.7 mph 98% 0 in
02:06 46 °F 46.4 °F 29.7 in SSW 3.1 mph 6.5 mph 98% 0 in
02:10 46 °F 46.4 °F 29.7 in SSE 5.4 mph 6.5 mph 98% 0 in
02:17 46.2 °F 46.4 °F 29.7 in South 6 mph 7.8 mph 98% 0 in
02:22 46.2 °F 46.4 °F 29.7 in South 4.3 mph 7.8 mph 98% 0 in
02:34 46.2 °F 46.4 °F 29.7 in SSE 5.8 mph 5.8 mph 98% 0 in
02:43 46.4 °F 46.4 °F 29.7 in Calm   6.5 mph 98% 0 in
03:06 46.4 °F 46.4 °F 29.7 in Calm   4.9 mph 98% 0.01 in
03:08 46.4 °F 46.4 °F 29.7 in South 3.1 mph 5.8 mph 98% 0.01 in
03:33 46.4 °F 46.4 °F 29.7 in SSE 6.7 mph 9.6 mph 98% 0.05 in
03:34 46.4 °F 46.4 °F 29.7 in South 5.4 mph 9.6 mph 98% 0.05 in
03:43 46.4 °F 46.4 °F 29.7 in SSE 5.8 mph 7.8 mph 98% 0.06 in
03:48 46.4 °F 46.4 °F 29.7 in SSE 5.4 mph 8.1 mph 98% 0.07 in
04:09 46.4 °F 46.4 °F 29.7 in South 3.6 mph 8.5 mph 98% 0.09 in
04:10 46.4 °F 46.4 °F 29.7 in South 7.6 mph 8.5 mph 98% 0.09 in
04:15 46.4 °F 46.4 °F 29.7 in SSE 2.9 mph 10.3 mph 98% 0.09 in
04:26 46.4 °F 46.4 °F 29.7 in South 3.8 mph 9.8 mph 98% 0.07 in
04:32 46.4 °F 46.4 °F 29.7 in South 3.4 mph 9.8 mph 98% 0.09 in
04:45 46.4 °F 46.4 °F 29.7 in SSE 6.3 mph 9.4 mph 98% 0.1 in
04:56 46.4 °F 46.4 °F 29.7 in South 4.9 mph 10.3 mph 98% 0.09 in
05:08 46.4 °F 46.4 °F 29.7 in SSE 6 mph 10.7 mph 98% 0.07 in
05:29 46.4 °F 46.4 °F 29.7 in SSW 6.3 mph 10.1 mph 98% 0.06 in
05:41 46.4 °F 46.4 °F 29.7 in SSW 3.4 mph 10.7 mph 98% 0.05 in
05:48 46.4 °F 46.4 °F 29.7 in South 7.4 mph 9.2 mph 98% 0.02 in
05:55 46.4 °F 46.4 °F 29.7 in SSW 6.3 mph 8.5 mph 98% 0.02 in
06:04 46.4 °F 46.4 °F 29.7 in South 5.4 mph 8.7 mph 98% 0.01 in
06:22 46.4 °F 46.4 °F 29.7 in SSW 7.4 mph 7.6 mph 98% 0.01 in
06:28 46.4 °F 46.4 °F 29.7 in SSE 8.5 mph 8.5 mph 98% 0 in
06:42 46.4 °F 46.4 °F 29.7 in South 5.4 mph 8.7 mph 98% 0 in
06:52 46.4 °F 46.4 °F 29.7 in South 6 mph 8.7 mph 98% 0 in
07:41 46.4 °F 46.4 °F 29.7 in SSW 8.5 mph 9.6 mph 98% 0.01 in
07:51 46.4 °F 46.4 °F 29.7 in SSW 3.4 mph 8.5 mph 98% 0.01 in
08:17 46.4 °F 46.4 °F 29.7 in South 5.6 mph 8.7 mph 98% 0 in
09:17 45 °F 44.6 °F 29.7 in SSW 5.6 mph 8.5 mph 98% 0.01 in
09:48 45.1 °F 44.6 °F 29.7 in Calm   8.1 mph 98% 0 in
09:54 45.1 °F 44.6 °F 29.7 in South 3.6 mph 7.4 mph 98% 0 in
10:17 45.3 °F 44.6 °F 29.7 in SSW 5.8 mph 9.2 mph 98% 0 in
10:28 45.3 °F 44.6 °F 29.7 in South 5.4 mph 7.8 mph 98% 0 in
11:16 45.9 °F 46.4 °F 29.7 in SSW 3.6 mph 6.5 mph 98% 0.01 in
11:55 46.4 °F 46.4 °F 29.7 in SW 6.3 mph 7.2 mph 98% 0 in
12:01 46.8 °F 46.4 °F 29.7 in SW 3.6 mph 7.2 mph 98% 0 in
12:08 46.9 °F 48.2 °F 29.7 in SW 4.9 mph 8.1 mph 98% 0 in
12:34 47.3 °F 48.2 °F 29.7 in South 4.3 mph 9.8 mph 98% 0 in
13:13 48.2 °F 48.2 °F 29.7 in Calm   9.6 mph 98% 0 in
13:36 49.1 °F 50 °F 29.7 in South 5.6 mph 6.9 mph 98% 0 in
13:50 49.3 °F 50 °F 29.7 in SW 5.4 mph 5.6 mph 98% 0 in
14:06 49.5 °F 50 °F 29.7 in SSW 5.4 mph 7.2 mph 98% 0 in
14:16 49.5 °F 50 °F 29.7 in SSW 7.4 mph 10.3 mph 98% 0 in
14:21 49.5 °F 50 °F 29.7 in SW 5.4 mph 10.3 mph 98% 0 in
14:59 50.5 °F 50 °F 29.7 in WSW 6 mph 10.3 mph 97% 0 in
15:04 50.2 °F 50 °F 29.7 in SSW 7.8 mph 8.5 mph 96% 0 in
15:25 49.6 °F 48.2 °F 29.7 in Calm   8.1 mph 96% 0 in
15:35 49.5 °F 48.2 °F 29.7 in SSW 4 mph 6.3 mph 96% 0 in
15:40 49.5 °F 48.2 °F 29.7 in SW 3.1 mph 6.3 mph 96% 0 in
15:45 49.3 °F 48.2 °F 29.7 in SSW 4.7 mph 6 mph 96% 0 in
15:50 49.3 °F 48.2 °F 29.7 in SW 2.7 mph 6.7 mph 96% 0 in
15:59 49.8 °F 50 °F 29.7 in Calm   6.3 mph 96% 0 in
16:09 49.5 °F 48.2 °F 29.7 in SW 4 mph 5.4 mph 96% 0 in
16:15 49.1 °F 48.2 °F 29.7 in Calm   5.4 mph 95% 0 in
16:33 48 °F 48.2 °F 29.7 in SSW 2.7 mph 5.8 mph 96% 0 in
16:41 47.8 °F 48.2 °F 29.7 in Calm   5.8 mph 96% 0 in
16:50 47.3 °F 48.2 °F 29.7 in SSW 1.1 mph 4 mph 96% 0 in
16:59 47.3 °F 48.2 °F 29.7 in South 4 mph 4.9 mph 97% 0 in
17:08 47.3 °F 48.2 °F 29.7 in South 4.3 mph 5.6 mph 97% 0 in
17:19 47.3 °F 48.2 °F 29.7 in South 3.4 mph 5.8 mph 98% 0 in
17:25 47.3 °F 48.2 °F 29.7 in South 4.3 mph 5.8 mph 98% 0 in
17:40 46.8 °F 46.4 °F 29.7 in Calm   6.7 mph 98% 0 in
17:45 46.8 °F 46.4 °F 29.7 in SSW 4.3 mph 6.7 mph 98% 0 in
17:51 46.6 °F 46.4 °F 29.7 in Calm   5.4 mph 98% 0 in
17:56 46.6 °F 46.4 °F 29.7 in Calm   5.6 mph 98% 0 in
18:04 46.4 °F 46.4 °F 29.7 in SSW 5.4 mph 5.6 mph 98% 0 in
18:11 46.6 °F 46.4 °F 29.7 in SSW 2.2 mph 7.2 mph 98% 0 in
18:16 46.6 °F 46.4 °F 29.7 in SSW 0.9 mph 7.2 mph 98% 0 in
18:21 46.8 °F 46.4 °F 29.7 in SSW 3.6 mph 6.3 mph 98% 0 in
18:30 46.8 °F 46.4 °F 29.7 in Calm   5.8 mph 98% 0 in
18:35 46.8 °F 46.4 °F 29.7 in SSW 4.3 mph 4.9 mph 98% 0 in
18:40 46.8 °F 46.4 °F 29.7 in South 6 mph 6 mph 98% 0 in
18:45 46.8 °F 46.4 °F 29.7 in SSW 2 mph 6 mph 98% 0 in
18:53 46.6 °F 46.4 °F 29.7 in Calm   5.8 mph 98% 0 in
18:59 46.6 °F 46.4 °F 29.7 in Calm   5.8 mph 98% 0 in
19:04 46.4 °F 46.4 °F 29.7 in Calm   4.3 mph 98% 0 in
19:10 46.4 °F 46.4 °F 29.7 in SSW 2 mph 4.9 mph 98% 0 in
19:19 46.4 °F 46.4 °F 29.7 in SSW 6 mph 6.5 mph 98% 0 in
19:24 46.4 °F 46.4 °F 29.7 in South 6.3 mph 6.5 mph 98% 0 in
19:31 46.4 °F 46.4 °F 29.8 in Calm   6.3 mph 98% 0 in
19:40 46.4 °F 46.4 °F 29.8 in Calm   7.2 mph 98% 0 in
19:52 46.4 °F 46.4 °F 29.8 in SSW 2.9 mph 6.3 mph 98% 0 in
19:58 46.4 °F 46.4 °F 29.8 in Calm   5.4 mph 98% 0 in
20:07 46.2 °F 46.4 °F 29.8 in Calm   3.4 mph 98% 0 in
20:15 45.9 °F 46.4 °F 29.8 in Calm   3.4 mph 98% 0 in
20:25 45.1 °F 44.6 °F 29.8 in Calm     98% 0 in
20:36 44.6 °F 44.6 °F 29.7 in South 2.9 mph 4.3 mph 98% 0 in
20:55 43.9 °F 44.6 °F 29.7 in Calm   2.2 mph 98% 0 in
21:00 43.7 °F 44.6 °F 29.7 in Calm   0.9 mph 98% 0 in
21:14 43.3 °F 42.8 °F 29.8 in Calm   2.5 mph 98% 0 in
21:29 42.8 °F 42.8 °F 29.8 in Calm   1.1 mph 98% 0 in
21:48 41.9 °F 42.8 °F 29.8 in Calm     98% 0 in
21:55 41.7 °F 42.8 °F 29.8 in Calm     98% 0 in
22:04 41.4 °F 41 °F 29.8 in Calm     98% 0 in
22:12 41.2 °F 41 °F 29.8 in Calm     98% 0 in
22:20 41 °F 41 °F 29.8 in Calm     98% 0 in
22:25 41 °F 41 °F 29.8 in Calm     98% 0 in
22:30 40.8 °F 41 °F 29.8 in Calm   0.9 mph 98% 0 in
22:34 40.8 °F 41 °F 29.8 in Calm   0.9 mph 98% 0 in
22:46 40.6 °F 41 °F 29.8 in Calm     98% 0 in
22:57 40.5 °F 41 °F 29.8 in Calm   2.5 mph 98% 0 in
23:04 40.5 °F 41 °F 29.8 in Calm     98% 0 in
23:11 40.3 °F 41 °F 29.8 in Calm     98% 0 in
23:19 40.3 °F 41 °F 29.8 in Calm     98% 0 in
23:25 40.3 °F 41 °F 29.8 in Calm     98% 0 in
23:33 39.6 °F 39.2 °F 29.8 in Calm     98% 0 in
23:40 39.4 °F 39.2 °F 29.8 in Calm     98% 0 in
23:48 39 °F 39.2 °F 29.8 in Calm     98% 0 in
Données Historique de Météo Turbie

Mise a jour : 21/05/2018 16:54:12
Généré par Cumulus 1.9.4 (1099)